Location: Alafon
(8.4500°N, 4.2333°E)
Time: 03:02:56
(UTC+00:00)

Vanguard 2 - Pass Details

Date: 11 August 2021
Orbit: 553 x 2937 km, 32.9° (Epoch: 27 September)

Event Time Altitude Azimuth Distance (km) Brightness Sun altitude
Rises 00:45:03 0° 281° (WNW) 4,240 - -62.4°
Reaches altitude 10° 00:51:26 10° 318° (NW) 2,611 - -61.6°
Maximum altitude 00:52:31 10° 329° (NNW) 2,474 - -61.5°
Drops below altitude 10° 00:53:33 10° 340° (NNW) 2,411 - -61.3°
Sets 00:58:08 0° 22° (NNE) 2,960 - -60.7°
